Location: Chuathbaluk
(61.5726°N, 159.2454°W)
Time: 04:38:42
(UTC+00:00)

Transit 4A - Pass Details

Date: 29 November 2020
Orbit: 864 x 980 km, 66.8° (Epoch: 26 January)

Event Time Altitude Azimuth Distance (km) Brightness Sun altitude
Rises 04:43:36 0° 310° (NW) 3,690 11.7 -21.0°
Reaches altitude 10° 04:47:31 10° 288° (WNW) 2,726 11.3 -21.5°
Maximum altitude 04:50:36 14° 258° (WSW) 2,420 11.1 -21.8°
Drops below altitude 10° 04:53:40 10° 229° (SW) 2,690 11.0 -22.2°
Sets 04:57:29 0° 206° (SSW) 3,608 11.4 -22.6°
